Location: Lugrin
(46.4033°N, 6.6674°E)
Time: 08:17:21
(UTC+00:00)

Tsikada Rocket - Pass Details

Date: 26 January 2021
Orbit: 957 x 1009 km, 82.9° (Epoch: 04 March)

Event Time Altitude Azimuth Distance (km) Brightness Sun altitude
Rises 17:58:23 0° 247° (WSW) 3,690 8.7 -15.4°
Reaches altitude 10° 18:02:32 10° 273° (W) 2,734 7.6 -16.1°
Maximum altitude 18:05:23 13° 301° (WNW) 2,493 6.8 -16.6°
Drops below altitude 10° 18:08:15 10° 329° (NNW) 2,725 6.6 -17.1°
Sets 18:12:24 0° 355° (N) 3,668 7.0 -17.8°
